This demonstration page uses our WeatherBlox Daily Observations layout. Learn more.

Left ArrowRight Arrow

Hourly Observations for June 26, 2019

Temp ( °F °C ) Dew Point ( °F °C ) Humidity (%) Winds ( mph kmh ) Pressure ( in mb ) Visibility ( mi km ) Precip ( " mm )
12:56 am 00:56 Clear 64 17.8 61 16.1 90 90 ESE 6 9 29.93 1013 10 16 0.00 0.03
1:56 am 01:56 Clear 65 18.3 59 15 81 81 SE 8 13 29.93 1013 10 16 0.00 0.00
2:56 am 02:56 Clear 65 18.3 59 15 81 81 S 14 22 29.88 1012 10 16 0.00 0.00
3:56 am 03:56 Clear 68 20 63 17.2 84 84 S 16 26 29.91 1013 10 16 0.00 0.00
4:56 am 04:56 Clear 66 18.9 62 16.7 87 87 E 10 17 29.96 1014 10 16 0.00 0.00
5:56 am 05:56 Mostly Cloudy 64 17.8 58 14.4 81 81 E 15 24 29.97 1015 10 16 0.00 0.00
6:03 am 06:03 Partly Cloudy 63 17 57 14 83 83 ENE 16 26 29.97 1015 10 16 0.00 0.00
6:08 am 06:08 Mostly Cloudy 63 17 57 14 83 83 E 15 24 29.98 1015 10 16 0.00 0.00
6:56 am 06:56 Partly Cloudy 65 18.3 59 15 81 81 ESE 15 24 29.99 1016 10 16 0.00 0.00
7:06 am 07:06 Mostly Cloudy 66 19 59 15 78 78 E 20 31 29.97 1015 10 16 0.00 0.00
7:15 am 07:15 Partly Cloudy 66 19 57 14 73 73 ESE 17 28 29.98 1015 10 16 0.00 0.00
7:22 am 07:22 Mostly Cloudy 66 19 57 14 73 73 ESE 16 26 29.98 1015 10 16 0.00 0.00
7:43 am 07:43 Partly Cloudy 66 19 57 14 73 73 ESE 16 26 29.99 1016 10 16 0.00 0.00
7:56 am 07:56 Mostly Sunny 66 18.9 58 14.4 75 75 ESE 21 33 30.02 1017 10 16 0.00 0.00
8:56 am 08:56 Sunny 68 20 58 14.4 70 70 SE 23 37 30.02 1017 10 16 0.00 0.00
9:56 am 09:56 Sunny 73 22.8 59 15 62 62 SE 22 35 30.02 1017 10 16 0.00 0.00
10:56 am 10:56 Sunny 76 24.4 60 15.6 58 58 SE 21 33 30.02 1017 10 16 0.00 0.00
11:56 am 11:56 Sunny 79 26.1 60 15.6 52 52 SE 24 39 29.99 1016 10 16 0.00 0.00
12:56 pm 12:56 Sunny 80 26.7 61 16.1 52 52 SSE 23 37 29.98 1015 10 16 0.00 0.00
1:56 pm 13:56 Sunny 80 26.7 64 17.8 58 58 SSE 21 33 29.95 1014 10 16 0.00 0.00
2:56 pm 14:56 Sunny 81 27.2 64 17.8 57 57 SSE 24 39 29.95 1014 10 16 0.00 0.00
3:56 pm 15:56 Sunny 81 27.2 64 17.8 57 57 S 18 30 29.94 1014 10 16 0.00 0.00
4:56 pm 16:56 Sunny 82 27.8 66 18.9 58 58 SSE 18 30 29.93 1014 10 16 0.00 0.00
5:56 pm 17:56 Sunny 83 28.3 68 20 61 61 SSE 20 31 29.92 1013 10 16 0.00 0.00
6:56 pm 18:56 Sunny 82 27.8 69 20.6 65 65 SSE 15 24 29.91 1013 10 16 0.00 0.00
7:56 pm 19:56 Sunny 80 26.7 69 20.6 69 69 SE 14 22 29.90 1013 10 16 0.00 0.00
8:56 pm 20:56 Sunny 78 25.6 70 21.1 76 76 SE 12 19 29.91 1013 10 16 0.00 0.00
9:56 pm 21:56 Clear 76 24.4 70 21.1 82 82 SE 10 17 29.93 1013 10 16 0.00 0.00
10:56 pm 22:56 Clear 75 23.9 71 21.7 88 88 ESE 12 19 29.94 1014 10 16 0.00 0.00
11:56 pm 23:56 Clear 74 23.3 71 21.7 91 91 SE 13 20 29.94 1014 10 16 0.00 0.00

Powered by AerisWeather